TimeEST,TemperatureF,Dew PointF,Humidity,Sea Level PressureIn,VisibilityMPH,Wind Direction,Wind SpeedMPH,Gust SpeedMPH,PrecipitationIn,Events,Conditions,WindDirDegrees,DateUTC
12:54 AM,21.0,12.0,68,30.53,10.0,East,9.2,-,N/A,,Overcast,80,2013-12-08 05:54:00
1:54 AM,21.0,12.9,71,30.50,10.0,East,8.1,-,N/A,,Overcast,100,2013-12-08 06:54:00
2:54 AM,21.0,12.0,68,30.48,10.0,East,9.2,-,N/A,,Overcast,80,2013-12-08 07:54:00
3:54 AM,21.0,12.0,68,30.46,10.0,East,9.2,-,N/A,,Overcast,80,2013-12-08 08:54:00
4:54 AM,21.0,12.9,71,30.44,10.0,East,9.2,-,N/A,,Overcast,90,2013-12-08 09:54:00
5:54 AM,21.9,12.9,68,30.40,10.0,ENE,11.5,-,N/A,,Overcast,70,2013-12-08 10:54:00
6:54 AM,21.0,14.0,74,30.39,10.0,NE,13.8,-,N/A,,Overcast,50,2013-12-08 11:54:00
7:54 AM,21.0,14.0,74,30.36,5.0,ENE,12.7,-,0.00,Snow,Light Snow,60,2013-12-08 12:54:00
8:54 AM,21.9,14.0,72,30.33,9.0,ENE,12.7,-,0.00,Snow,Light Snow,60,2013-12-08 13:54:00
9:14 AM,21.2,15.8,80,30.29,2.5,ENE,16.1,-,0.00,Snow,Light Snow,70,2013-12-08 14:14:00
9:24 AM,21.2,15.8,80,30.29,1.8,ENE,12.7,-,0.00,Snow,Light Snow,70,2013-12-08 14:24:00
9:26 AM,21.2,15.8,80,30.29,1.5,ENE,12.7,-,0.00,Snow,Light Snow,70,2013-12-08 14:26:00
9:40 AM,21.2,15.8,80,30.28,1.5,ENE,13.8,-,0.01,Snow,Light Snow,70,2013-12-08 14:40:00
9:49 AM,21.2,17.6,86,30.28,2.5,East,15.0,-,0.01,Snow,Light Snow,80,2013-12-08 14:49:00
9:54 AM,21.9,17.1,82,30.32,3.0,East,15.0,-,0.01,Snow,Light Snow,80,2013-12-08 14:54:00
10:06 AM,21.2,17.6,86,30.28,4.0,East,13.8,-,0.00,Snow,Light Snow,90,2013-12-08 15:06:00
10:45 AM,23.0,17.6,80,30.27,8.0,ENE,15.0,-,0.00,Snow,Light Snow,70,2013-12-08 15:45:00
10:54 AM,23.0,18.0,81,30.30,8.0,ENE,15.0,-,0.00,Snow,Light Snow,70,2013-12-08 15:54:00
11:19 AM,24.8,17.6,74,30.25,7.0,East,15.0,-,0.00,Snow,Light Snow,90,2013-12-08 16:19:00
11:46 AM,24.8,17.6,74,30.24,2.5,East,16.1,-,0.00,Snow,Light Snow,90,2013-12-08 16:46:00
11:54 AM,24.1,18.0,77,30.27,2.5,East,12.7,-,0.00,Snow,Light Snow,90,2013-12-08 16:54:00
12:11 PM,24.8,19.4,80,30.22,3.0,East,15.0,-,0.00,Snow,Light Snow,90,2013-12-08 17:11:00
12:54 PM,25.0,19.0,78,30.23,3.0,East,13.8,-,0.00,Snow,Light Snow,90,2013-12-08 17:54:00
1:04 PM,24.8,19.4,80,30.18,2.0,East,15.0,-,0.00,Snow,Light Snow,90,2013-12-08 18:04:00
1:17 PM,24.8,19.4,80,30.16,1.8,East,12.7,-,0.00,Snow,Light Snow,90,2013-12-08 18:17:00
1:34 PM,24.8,21.2,86,30.14,2.5,East,13.8,-,0.01,Snow,Light Snow,100,2013-12-08 18:34:00
1:54 PM,25.0,21.0,85,30.17,2.5,East,11.5,-,0.01,Snow,Light Snow,80,2013-12-08 18:54:00
2:09 PM,26.6,21.2,80,30.12,3.0,East,11.5,-,0.00,Snow,Light Snow,90,2013-12-08 19:09:00
2:37 PM,26.6,21.2,80,30.10,3.0,East,11.5,-,0.00,Snow,Light Snow,90,2013-12-08 19:37:00
2:54 PM,26.1,21.0,81,30.13,6.0,East,12.7,-,0.00,Snow,Light Snow,100,2013-12-08 19:54:00
3:54 PM,26.1,21.9,84,30.08,7.0,ESE,16.1,-,0.00,Rain,Light Freezing Rain,110,2013-12-08 20:54:00
4:42 PM,26.6,21.2,80,30.05,7.0,East,10.4,-,0.00,,Overcast,100,2013-12-08 21:42:00
4:54 PM,27.0,21.9,81,30.09,7.0,ESE,6.9,-,0.00,,Overcast,110,2013-12-08 21:54:00
5:30 PM,26.6,23.0,86,30.04,5.0,ESE,10.4,-,N/A,,Overcast,110,2013-12-08 22:30:00
5:54 PM,26.1,24.1,92,30.07,3.0,ESE,9.2,-,0.00,,Light Freezing Drizzle,110,2013-12-08 22:54:00
6:01 PM,26.6,24.8,93,30.04,2.0,ESE,10.4,-,0.00,,Light Freezing Drizzle,120,2013-12-08 23:01:00
6:29 PM,26.6,24.8,93,30.02,2.0,ESE,10.4,-,0.00,,Light Freezing Drizzle,120,2013-12-08 23:29:00
6:38 PM,26.6,24.8,93,30.01,2.0,ESE,12.7,-,0.00,,Overcast,120,2013-12-08 23:38:00
6:54 PM,26.1,25.0,96,30.04,2.0,ESE,9.2,-,0.00,,Overcast,110,2013-12-08 23:54:00
7:54 PM,27.0,25.0,92,30.04,2.5,SE,9.2,-,N/A,,Overcast,140,2013-12-09 00:54:00
8:25 PM,26.6,26.6,100,30.02,1.8,SSE,6.9,-,N/A,,Overcast,160,2013-12-09 01:25:00
8:37 PM,26.6,26.6,100,30.02,0.2,SSE,5.8,-,N/A,,Overcast,160,2013-12-09 01:37:00
8:54 PM,27.0,26.1,96,30.05,0.2,South,6.9,-,N/A,,Overcast,170,2013-12-09 01:54:00
9:03 PM,26.6,26.6,100,30.02,0.2,South,5.8,-,0.00,Rain,Light Freezing Rain,180,2013-12-09 02:03:00
9:38 PM,26.6,26.6,100,29.99,0.2,SSE,5.8,-,0.01,,Light Freezing Drizzle,160,2013-12-09 02:38:00
9:54 PM,28.0,27.0,96,30.02,0.2,South,8.1,-,0.01,,Overcast,180,2013-12-09 02:54:00
10:44 PM,28.4,26.6,93,29.99,0.2,South,8.1,-,N/A,,Overcast,190,2013-12-09 03:44:00
10:54 PM,28.0,27.0,96,30.02,0.2,SSW,8.1,-,0.00,,Light Freezing Drizzle,200,2013-12-09 03:54:00
11:54 PM,28.0,27.0,96,30.01,0.2,SSW,8.1,-,0.00,,Light Freezing Drizzle,210,2013-12-09 04:54:00